Weather History for Seattle Boeing, WA

Change the Weather History Date:

Tuesday, January 29, 2013

  Actual Average Record
Temperature  
Mean Temperature 46 °F -  
Max Temperature 48 °F 46 °F 60 °F (1992)
Min Temperature 43 °F 35 °F 6 °F (1950)
Degree Days  
Heating Degree Days 20    
Moisture  
Dew Point 43 °F    
Average Humidity 86    
Maximum Humidity 90    
Minimum Humidity 77    
Precipitation  
Precipitation 0.29 in - - ()
Sea Level Pressure  
Sea Level Pressure 30.27 in    
Wind  
Wind Speed 7 mph (SSE)    
Max Wind Speed 12 mph    
Max Gust Speed 22 mph    
Visibility 9 miles    
Events Rain    
Averages and records for this station are not official NWS values.
T = Trace of Precipitation, MM = Missing Value Source: NWS Daily Summary

Daily Weather History Graph

Daily Weather History Graph

Search for Another Location

Airport:

Trip Planner

Search our weather history database for the weather conditions in past years. The results will help you decide how hot, cold, wet, or windy it might be!

Date:

Astronomy

Jan. 29, 2013 Rise Set
Actual Time 7:38 AM PST 5:06 PM PST
Civil Twilight 7:05 AM PST 5:39 PM PST
Nautical Twilight 6:28 AM PST 6:16 PM PST
Astronomical Twilight 5:52 AM PST 6:53 PM PST
Moon 8:25 PM PST (1/29) 8:23 AM PST (1/29)
Length of Visible Light 10h 34m
Length of Day
9h 27m
Waning Gibbous, 93% of the Moon is Illuminated
Jan 29
Waning Gibbous
Feb 3
Last Quarter
Feb 9
New
Feb 17
First Quarter
Feb 25
Full

Hourly Weather History & Observations

Time (PST) Temp. Windchill Dew Point Humidity Pressure Visibility Wind Dir Wind Speed Gust Speed Precip Events Conditions
12:53 AM 43.0 °F 38.2 °F 39.9 °F 89% 30.11 in 9.0 mi SE 8.1 mph - 0.01 in Rain Light Rain
1:53 AM 43.0 °F 37.7 °F 39.9 °F 89% 30.12 in 10.0 mi SE 9.2 mph - 0.01 in Rain Light Rain
2:53 AM 44.1 °F 40.1 °F 41.0 °F 89% 30.14 in 10.0 mi SE 6.9 mph - 0.01 in Rain Light Rain
3:53 AM 44.1 °F 40.8 °F 41.0 °F 89% 30.16 in 10.0 mi SE 5.8 mph - 0.01 in Rain Light Rain
4:34 AM 44.6 °F - 41.0 °F 87% 30.17 in 10.0 mi Calm Calm - 0.01 in Rain Light Rain
4:53 AM 44.1 °F 40.1 °F 41.0 °F 89% 30.16 in 10.0 mi SSE 6.9 mph - 0.01 in Rain Light Rain
5:53 AM 44.1 °F 41.5 °F 41.0 °F 89% 30.18 in 10.0 mi SSE 4.6 mph - 0.01 in   Overcast
6:53 AM 45.0 °F 41.2 °F 41.0 °F 86% 30.20 in 10.0 mi SE 6.9 mph - 0.00 in Rain Light Rain
7:53 AM 45.0 °F 41.2 °F 42.1 °F 90% 30.23 in 10.0 mi SE 6.9 mph - 0.00 in   Overcast
8:53 AM 45.0 °F 40.6 °F 42.1 °F 90% 30.25 in 10.0 mi SE 8.1 mph - 0.01 in   Overcast
9:53 AM 46.9 °F - 43.0 °F 86% 30.28 in 10.0 mi SE 8.1 mph - N/A   Overcast
10:53 AM 46.9 °F - 44.1 °F 90% 30.30 in 10.0 mi SSE 10.4 mph - 0.00 in Rain Light Rain
11:53 AM 48.0 °F - 44.1 °F 86% 30.30 in 10.0 mi SE 8.1 mph - 0.01 in Rain Light Rain
12:53 PM 48.0 °F - 44.1 °F 86% 30.30 in 10.0 mi SSE 6.9 mph - 0.01 in Rain Light Rain
1:43 PM 48.2 °F - 44.6 °F 87% 30.31 in 10.0 mi SE 4.6 mph - 0.00 in Rain Light Rain
1:53 PM 48.9 °F - 44.1 °F 83% 30.31 in 10.0 mi SSE 5.8 mph - 0.00 in   Overcast
2:53 PM 48.0 °F - 45.0 °F 89% 30.31 in 5.0 mi SSE 3.5 mph - 0.01 in Rain Light Rain
3:53 PM 48.0 °F - 45.0 °F 89% 30.32 in 4.0 mi SSE 9.2 mph - 0.01 in   Overcast
4:53 PM 48.0 °F - 45.0 °F 89% 30.33 in 9.0 mi SSE 6.9 mph - N/A   Overcast
5:04 PM 48.2 °F - 44.6 °F 87% 30.33 in 9.0 mi SSE 6.9 mph - N/A   Overcast
5:53 PM 48.9 °F - 43.0 °F 80% 30.33 in 10.0 mi SSE 11.5 mph 19.6 mph N/A   Overcast
6:53 PM 48.9 °F - 43.0 °F 80% 30.33 in 10.0 mi SSW 9.2 mph - N/A   Overcast
7:53 PM 48.9 °F - 42.1 °F 77% 30.34 in 10.0 mi South 9.2 mph - N/A   Overcast
8:53 PM 48.0 °F - 42.1 °F 80% 30.34 in 10.0 mi SSW 9.2 mph 21.9 mph 0.03 in Rain Light Rain
9:53 PM 48.0 °F - 41.0 °F 77% 30.34 in 10.0 mi South 9.2 mph 19.6 mph 0.05 in Rain Light Rain
10:53 PM 46.9 °F - 42.1 °F 83% 30.34 in 10.0 mi SSE 9.2 mph - 0.05 in Rain Light Rain
11:21 PM 46.4 °F 41.5 °F 42.8 °F 87% 30.34 in 5.0 mi SSE 10.4 mph - 0.03 in Rain Light Rain
11:53 PM 46.0 °F 41.9 °F 43.0 °F 89% 30.33 in 4.0 mi SE 8.1 mph - 0.05 in   Overcast